Wind_Speed
40 39 39 39 38 37 37 38 38 39 39 39 39 40 41 41 41 39 35 31 28 26 24 23 22 21 21 21 22 22 24 25 26 27 28 29 29 29 29 30 30 31 32 33 34 34 36 38 39 39 40 41 42 42 44 44 45 46 46 47 47 47 47 47 46 47 49 48 42 37 36 38 40 41 43 45 48 50 53 54 55 55 58 62 64 65 68
39 39 38 37 36 37 37 38 39 39 39 40 40 41 41 41 39 35 30 27 25 24 22 21 21 21 22 23 23 24 25 27 28 29 29 30 30 30 31 31 32 33 33 34 35 36 37 39 40 40 41 42 43 43 44 44 45 45 45 46 47 47 47 47 45 46 45 42 38 36 38 41 43 44 46 49 51 54 56 59 60 60 61 66 68 69 73
37 36 35 35 36 37 38 38 39 39 40 40 40 41 40 38 34 30 27 25 23 22 21 21 21 22 23 24 25 26 27 28 29 29 30 30 31 31 32 32 33 34 35 35 36 37 38 39 40 41 41 42 43 43 44 44 44 44 44 45 45 47 48 47 44 41 38 36 35 37 39 42 45 47 50 52 55 58 61 63 64 64 65 68 71 72 75
35 34 34 35 37 38 38 39 39 39 40 40 40 39 37 33 30 27 25 23 22 21 21 21 22 23 24 26 27 28 29 29 30 30 30 31 31 32 33 33 34 35 36 37 38 39 39 40 40 41 42 42 43 44 44 44 44 44 44 44 44 46 47 45 40 37 35 35 36 38 41 44 47 49 52 55 58 61 65 67 69 70 69 71 75 76 76
34 35 36 36 37 38 39 39 39 40 40 40 38 35 32 29 26 24 23 21 21 21 22 22 23 24 26 27 28 29 29 30 30 31 31 32 32 33 34 35 36 37 38 39 40 40 41 41 41 42 42 42 42 43 43 43 44 44 44 44 43 43 43 40 37 37 38 38 39 42 44 47 49 52 55 58 61 65 68 71 73 74 75 75 79 81 82
35 36 37 37 38 38 39 39 40 40 39 37 33 30 27 25 24 22 21 21 21 22 23 24 25 26 27 28 29 29 30 31 31 32 33 33 34 35 36 37 38 39 39 40 41 42 42 43 42 42 42 42 42 43 43 43 43 43 43 42 39 38 37 37 37 40 41 42 43 46 48 50 52 55 59 61 65 68 71 75 77 79 80 81 83 86 88
36 37 37 37 37 38 39 40 39 38 35 31 28 26 24 22 22 21 21 21 22 23 24 26 27 27 28 28 29 30 31 32 33 34 35 36 36 37 38 39 39 40 40 40 41 41 42 42 42 42 42 42 42 42 42 42 42 41 39 37 33 33 35 37 39 43 45 46 47 49 51 54 56 59 62 65 68 71 75 78 81 83 84 86 87 89 92
36 36 37 37 37 38 39 38 36 33 29 26 24 22 21 21 21 21 22 23 24 25 26 27 28 28 28 30 31 32 33 34 34 35 36 37 38 38 39 39 40 40 40 40 40 41 41 41 42 42 42 42 42 41 41 41 40 37 34 32 31 32 36 38 40 45 49 50 51 53 55 57 60 63 66 69 72 75 78 82 85 87 88 89 91 93 94
36 36 36 37 38 38 36 34 30 27 25 23 21 20 20 20 21 22 23 24 25 26 27 27 28 29 30 31 33 34 35 35 36 37 38 38 39 39 39 39 39 39 39 40 40 40 41 41 42 42 42 42 42 41 40 38 35 33 31 31 33 35 37 40 43 46 50 53 55 57 58 60 64 68 70 73 76 78 81 85 89 91 91 92 94 96 96
35 36 37 37 36 34 31 28 25 23 21 20 20 20 21 21 22 23 25 26 26 27 28 29 30 31 32 33 34 35 36 37 38 38 39 39 39 39 39 38 38 38 39 40 41 41 42 43 43 42 42 41 40 38 35 32 31 31 32 34 36 38 40 43 45 48 52 55 58 60 62 64 67 71 74 77 80 82 84 88 92 96 96 96 97 99 99
36 36 35 34 31 28 25 23 21 20 19 19 20 21 22 22 23 24 26 27 28 28 30 31 32 33 34 35 36 37 38 38 39 39 39 39 39 38 38 38 38 39 40 41 43 43 44 43 42 41 40 38 35 32 30 29 30 32 35 37 39 41 44 46 48 50 53 57 61 64 67 69 71 74 78 80 83 85 88 91 94 97 98 99 101 102 103
34 33 31 28 25 23 21 20 19 19 19 20 21 22 23 24 25 25 27 28 29 30 31 33 34 35 36 37 37 38 39 39 39 39 39 39 38 38 38 38 39 41 42 43 44 44 43 42 40 38 35 32 29 28 28 30 33 35 37 40 42 45 47 49 52 54 56 60 64 67 69 73 76 79 81 84 86 88 90 93 96 98 99 101 104 106 108
30 27 25 22 21 19 18 18 19 20 21 22 23 24 24 25 26 27 28 29 31 32 33 34 35 36 37 38 39 39 40 40 40 40 39 39 39 39 39 40 42 43 44 44 44 42 40 38 35 32 29 27 27 28 30 33 36 38 41 43 46 48 51 53 55 58 61 64 67 71 72 75 79 83 85 87 91 93 94 94 97 99 101 103 105 108 110
23 21 20 18 18 18 18 19 20 21 22 23 24 25 26 26 28 29 30 31 32 33 35 35 36 37 38 39 40 40 40 40 40 40 40 40 40 41 41 42 43 44 44 43 42 39 36 33 30 27 26 26 28 31 34 37 39 42 45 47 50 52 55 57 59 62 65 68 71 75 77 78 82 86 89 91 94 96 96 95 96 99 102 106 108 110 113
18 18 17 17 18 18 19 20 21 22 23 24 25 26 27 28 29 30 31 33 34 35 36 36 37 38 39 40 40 41 41 41 41 41 41 42 42 43 43 44 44 43 42 41 38 34 31 28 26 26 28 30 32 35 38 40 43 46 48 51 53 56 59 61 64 67 70 72 75 78 80 82 86 90 92 94 96 98 99 99 100 103 106 110 112 114 117
17 17 17 18 19 19 20 21 22 23 24 25 26 28 29 30 31 32 33 34 35 36 37 37 38 39 39 40 41 41 41 42 42 42 43 43 43 43 43 43 42 41 39 37 33 29 27 25 26 28 30 33 35 38 41 43 46 49 52 54 57 60 63 66 69 71 74 77 80 82 84 86 90 93 94 95 98 100 101 103 105 108 112 116 118 120 123
17 18 18 19 20 20 21 22 23 24 25 26 28 29 30 31 32 33 34 35 36 37 37 38 38 39 40 40 41 41 42 42 42 42 42 42 42 42 41 40 39 37 35 32 29 27 26 27 28 31 34 37 39 41 44 47 49 52 55 58 61 64 66 70 73 76 78 81 84 87 89 91 93 96 96 97 100 104 106 108 110 112 116 120 123 126 128
18 18 19 20 20 21 22 23 24 25 26 28 29 30 31 32 33 34 35 36 36 37 38 38 39 39 39 40 40 40 40 40 40 40 39 39 39 38 38 37 35 33 31 29 27 27 28 29 32 34 37 40 42 44 47 50 53 55 58 61 64 67 70 74 77 80 82 85 88 90 92 93 95 98 99 100 103 107 110 113 115 117 119 122 125 129 131
18 19 20 20 21 22 23 25 25 27 28 29 30 31 32 33 34 35 35 36 37 37 38 38 38 38 38 38 37 37 37 37 37 37 37 37 36 35 35 34 32 30 28 27 27 29 31 33 35 38 41 43 46 48 51 54 57 59 62 65 68 71 74 77 80 83 86 88 90 92 93 94 97 100 103 105 107 110 113 116 119 123 125 126 128 130 132
19 20 20 21 22 23 25 26 27 28 29 30 31 32 33 33 34 35 36 36 36 37 37 37 37 36 36 36 35 35 35 35 35 35 35 35 34 33 32 31 30 29 28 28 30 31 33 36 39 41 44 47 49 51 54 57 60 63 65 68 71 74 77 80 83 86 87 89 91 93 94 97 99 102 105 108 111 114 116 119 122 125 128 130 132 134 134
20 20 21 22 24 25 26 27 28 29 30 31 32 32 33 34 34 35 35 36 36 36 35 35 35 34 34 34 34 34 34 34 34 34 34 34 33 32 30 30 29 29 29 30 32 34 37 39 42 45 47 50 53 55 57 60 63 66 69 72 75 78 80 82 84 86 88 89 92 95 98 101 104 107 109 112 115 119 122 124 127 129 132 134 135 135 134
21 22 23 24 25 26 27 28 29 30 30 31 32 33 33 34 34 34 34 34 34 34 33 33 33 33 32 32 32 32 32 33 33 33 32 32 31 30 30 29 29 30 31 33 35 37 40 43 45 48 51 54 57 59 61 64 67 70 73 75 78 80 81 83 85 88 90 92 95 98 102 106 109 113 116 119 122 125 128 131 133 134 135 135 133 130 127
22 23 24 25 26 27 28 29 29 30 31 31 32 33 33 33 33 33 32 32 32 32 31 31 31 31 31 31 31 31 31 31 31 31 31 30 30 30 30 30 31 32 34 36 38 40 43 46 49 51 54 57 60 63 66 68 70 73 75 77 79 81 83 85 87 90 94 96 99 102 107 111 114 118 121 124 127 129 132 133 134 134 133 131 128 125 123
23 24 25 26 27 27 28 29 29 30 31 31 31 32 32 31 31 31 30 30 30 30 30 30 30 30 30 30 30 30 30 30 30 30 30 30 30 31 32 32 33 35 37 39 42 44 47 50 52 55 58 61 63 66 68 70 72 74 76 78 80 82 85 88 91 94 98 101 104 107 111 115 118 121 124 127 129 131 132 132 131 129 127 125 124 122 120
24 25 25 26 27 28 28 29 30 30 30 30 30 30 30 29 29 28 28 28 28 28 29 29 29 30 30 29 29 29 29 29 29 30 30 31 31 32 33 35 36 38 40 43 45 48 51 53 56 58 61 63 65 67 68 70 73 75 77 80 83 86 89 92 95 99 102 105 108 111 115 119 122 124 126 127 128 129 129 127 125 123 122 121 120 119 117
24 25 26 26 27 28 28 29 29 29 29 29 28 28 28 27 27 27 27 27 28 28 28 28 29 29 29 29 28 28 28 29 29 30 31 31 32 34 35 37 39 40 43 45 48 50 53 55 58 60 61 63 65 67 69 72 75 78 81 84 87 90 93 97 100 103 106 109 112 114 117 120 123 124 125 125 125 123 122 121 120 119 118 117 117 117 116
24 25 26 26 27 27 28 28 28 28 28 27 27 27 26 26 26 27 27 27 27 27 28 27 28 28 28 28 28 29 29 30 30 31 32 33 34 36 37 39 41 43 45 47 50 52 54 56 58 60 62 65 67 70 72 76 78 82 85 88 92 95 98 101 104 107 110 113 115 117 118 120 121 122 121 121 119 118 117 117 117 116 116 115 114 114 115
24 24 25 25 26 27 27 27 27 26 26 26 26 26 25 26 26 26 27 27 27 27 27 27 27 28 28 29 29 29 30 31 31 32 33 35 36 38 39 41 43 45 47 49 51 53 55 58 60 62 65 67 70 73 76 80 83 86 90 93 97 100 103 106 109 111 114 116 118 119 119 119 118 118 117 116 116 115 115 115 115 115 114 114 113 112 111
23 23 24 25 25 25 25 25 25 25 25 25 25 25 25 26 26 26 27 27 27 27 27 27 27 28 28 29 30 30 31 32 33 34 35 37 38 40 41 43 45 47 49 51 53 56 58 61 63 66 68 71 74 77 81 84 88 91 95 98 102 105 108 110 113 115 117 118 119 118 117 116 115 114 114 114 114 114 115 115 114 114 114 113 112 110 108
22 23 23 23 24 24 24 24 24 24 24 24 25 25 25 26 26 26 27 27 27 27 27 27 27 28 29 29 30 31 32 33 35 36 37 38 40 42 44 46 48 50 52 54 57 59 61 64 67 69 72 75 79 83 86 90 93 96 99 103 106 109 111 114 115 116 117 116 116 115 114 112 112 112 112 113 114 114 114 114 113 112 112 111 109 108 108
22 22 22 23 23 23 23 24 24 24 24 25 25 25 25 26 26 26 26 26 26 26 27 27 28 28 29 30 31 33 34 35 36 38 39 41 43 44 46 48 51 53 55 57 60 63 65 68 71 74 78 81 85 88 91 95 98 101 104 106 109 111 113 114 115 115 113 112 111 111 111 111 110 110 110 111 111 111 111 111 110 109 108 108 107 107 107
21 21 21 22 22 23 23 24 24 24 24 24 25 25 25 25 26 26 26 26 26 26 27 28 28 30 31 32 33 34 35 37 38 40 42 43 45 47 49 52 54 56 59 61 64 67 71 74 77 80 84 87 90 93 96 99 102 104 107 109 110 111 112 112 112 111 109 107 107 107 107 108 109 109 108 108 108 107 107 107 106 106 106 106 106 106 106
20 20 21 21 22 22 23 23 24 24 24 24 24 25 25 25 25 25 26 26 26 27 28 29 30 31 32 34 35 36 37 39 41 42 44 46 48 50 52 54 57 60 63 66 69 73 77 80 83 86 89 92 95 97 100 102 105 107 108 109 110 110 109 108 107 106 106 105 105 105 105 105 106 107 107 107 106 105 105 104 104 104 105 105 105 105 105
20 20 21 21 21 22 23 23 24 24 24 24 25 25 25 25 25 26 26 27 28 29 30 31 32 33 34 35 37 38 39 41 43 45 47 48 50 52 54 57 61 64 68 72 75 79 82 85 88 90 93 96 98 100 102 104 106 107 108 108 107 106 104 103 103 103 103 103 104 104 104 104 104 104 105 105 104 104 103 103 104 104 104 104 104 103 103
20 20 21 21 22 22 23 24 24 25 25 25 26 26 26 27 27 28 28 29 30 31 32 33 34 35 36 37 38 40 41 43 45 46 48 50 53 56 59 63 66 70 74 77 80 83 86 89 91 94 96 98 101 102 104 105 106 106 105 104 103 101 100 100 100 101 101 101 101 102 102 103 103 102 102 102 102 102 102 103 102 102 101 101 101 101 100
20 21 21 22 22 23 24 24 25 25 26 26 27 27 27 28 28 29 30 30 31 32 33 34 35 36 38 39 41 42 44 45 47 49 52 55 58 61 65 68 71 75 78 81 84 87 90 92 94 96 98 100 102 103 104 104 103 102 101 99 99 99 98 98 99 99 99 100 100 101 102 102 102 101 101 102 102 102 102 101 100 99 98 98 97 96 95
19 20 21 21 22 23 23 24 25 25 26 27 27 28 28 29 30 30 31 32 32 33 34 35 37 38 39 41 42 44 46 48 50 53 57 60 63 66 69 72 75 78 81 84 87 90 93 95 97 99 100 102 103 103 103 101 99 98 97 97 97 97 97 97 97 97 98 99 99 100 101 101 101 101 101 102 102 102 102 101 100 98 97 95 94 92 91
19 19 20 21 22 23 24 24 25 26 27 27 28 29 30 30 31 31 32 32 33 34 35 36 37 38 40 42 44 46 49 51 55 58 61 65 67 70 73 75 78 82 85 88 91 93 96 97 99 100 101 102 102 101 99 97 96 96 95 95 95 95 95 95 95 96 96 97 98 98 98 98 99 100 101 101 102 101 101 100 99 98 96 93 91 90 89
22 22 23 24 24 25 25 25 25 26 27 28 28 29 30 30 31 32 32 33 34 34 35 37 38 40 42 44 47 50 53 56 59 62 65 68 70 73 76 79 82 86 89 91 94 96 97 99 100 101 101 100 99 97 95 94 94 94 94 94 94 94 94 94 94 95 96 96 96 97 97 97 97 98 99 99 99 99 99 98 97 95 93 90 88 87 87
27 27 28 28 28 28 28 28 28 28 29 30 30 30 30 31 31 32 32 33 34 35 37 39 41 43 46 48 51 54 57 60 62 65 68 71 73 76 79 83 86 89 92 94 97 99 99 100 100 100 98 97 95 94 93 93 93 93 93 93 93 93 93 93 94 94 95 96 97 97 98 98 98 98 98 97 97 97 97 96 94 92 89 87 86 86 86
30 31 31 31 32 32 32 32 32 33 33 33 33 33 33 33 33 34 34 36 37 39 40 42 44 46 49 51 54 57 59 62 65 68 71 74 77 80 83 87 90 93 95 97 99 100 100 100 99 97 95 94 93 93 92 92 92 92 91 91 91 91 91 92 93 94 95 96 97 98 98 98 98 98 97 97 97 96 95 93 91 89 87 86 85 85 86
31 32 32 33 34 34 34 34 35 35 36 36 36 36 36 36 37 37 38 39 40 42 43 45 47 49 51 53 56 59 62 65 68 71 74 77 80 84 87 90 93 95 97 99 100 101 100 98 96 94 93 92 92 92 91 91 90 90 90 90 90 90 90 91 93 94 95 97 97 98 98 98 98 98 97 97 96 95 93 91 89 88 87 86 85 85 86
31 32 32 33 34 35 35 36 36 37 37 38 38 39 39 39 39 40 41 42 43 44 46 47 49 51 53 55 58 61 65 68 72 75 78 81 84 87 90 93 95 97 99 100 100 99 97 95 93 92 92 92 91 91 90 89 89 88 88 88 89 89 90 92 93 95 96 97 98 98 98 98 98 98 97 96 95 93 91 90 89 87 87 86 86 86 86
31 32 33 33 34 35 35 36 36 37 37 37 38 39 40 40 41 42 43 44 45 47 48 49 51 53 56 58 61 65 68 72 76 79 82 85 88 90 93 95 97 98 99 99 98 96 94 93 92 91 90 90 89 89 88 87 87 86 87 87 88 90 91 93 94 96 97 98 98 98 98 97 97 97 96 94 92 91 89 89 88 88 87 87 87 87 87
33 33 34 35 35 36 36 36 36 37 37 37 38 38 39 41 42 43 44 46 47 48 50 52 54 56 59 62 65 69 72 76 79 82 85 88 91 93 95 97 98 98 97 96 95 93 92 91 90 89 89 88 87 86 85 85 85 85 86 88 89 91 93 94 96 97 98 98 98 98 97 96 96 95 94 92 91 89 88 88 87 87 87 88 88 88 88
35 35 35 36 37 37 37 37 38 38 38 38 38 39 40 41 42 44 45 47 49 50 52 54 56 59 62 65 69 72 76 80 83 86 89 91 94 96 97 97 97 96 94 93 92 91 91 90 88 87 86 86 85 84 84 84 85 86 87 89 91 93 95 96 97 98 99 99 98 97 96 95 95 94 93 91 89 89 88 88 88 87 88 88 88 88 88
37 38 38 39 39 39 39 39 40 40 40 40 40 41 42 43 44 46 47 49 51 53 55 57 59 62 65 69 73 77 80 84 87 90 92 95 96 97 97 96 95 93 92 91 90 90 89 88 87 86 85 84 84 84 84 84 86 87 89 91 93 95 96 98 98 98 99 98 97 96 95 95 94 93 92 90 89 88 88 89 89 89 89 89 89 89 88
40 41 41 42 42 42 42 43 43 43 43 43 42 43 44 45 46 48 50 52 54 56 58 60 63 66 70 74 78 81 85 88 91 93 95 97 97 97 96 94 93 91 90 90 89 88 88 87 85 84 83 83 83 83 84 85 87 89 91 93 95 96 98 98 98 98 98 97 96 95 95 94 93 92 91 90 89 88 89 89 90 90 90 90 89 89 89
43 44 44 45 45 46 46 46 47 46 46 46 46 46 46 48 50 52 54 56 58 60 62 65 68 71 75 79 82 86 89 92 94 96 97 98 98 96 94 92 91 90 89 88 87 87 86 85 84 83 82 83 83 85 86 87 89 91 93 95 96 98 99 99 99 99 98 96 96 95 94 93 92 91 90 90 89 89 89 90 91 91 91 90 90 90 89
47 48 49 49 50 51 51 51 51 50 49 49 49 49 50 52 54 56 58 60 62 65 67 70 73 77 80 84 87 90 93 95 97 98 98 98 97 95 93 91 90 89 88 87 86 85 84 83 83 82 83 83 85 86 88 89 91 93 95 96 97 99 100 100 100 99 97 96 96 95 94 93 92 91 90 90 91 91 91 91 92 93 93 93 92 91 89
50 51 52 53 54 54 55 55 54 54 53 53 53 54 54 56 58 60 62 64 67 69 72 75 79 82 85 88 91 94 96 98 99 99 98 97 95 94 92 91 90 88 87 86 85 84 84 83 83 83 83 84 86 87 89 91 93 94 96 97 98 99 100 100 99 98 97 96 96 95 95 94 92 92 91 91 91 92 93 93 94 94 95 94 93 91 89
53 54 55 56 57 58 58 58 58 58 57 57 58 58 59 60 62 64 66 69 71 74 77 80 84 87 90 93 95 97 99 99 99 99 97 96 94 93 91 90 89 88 86 85 84 84 84 84 84 84 84 86 87 89 91 92 94 96 97 98 99 99 100 100 99 98 97 96 96 95 94 93 92 91 91 91 91 92 93 93 94 94 94 94 93 91 88
Wind_Direction
270 275 278 281 285 289 292 294 296 297 298 299 300 301 302 303 304 303 302 299 297 295 293 293 292 290 291 293 295 297 298 297 296 295 294 294 293 294 293 293 292 291 291 290 289 289 289 288 289 289 289 289 289 289 289 289 289 289 290 290 291 291 291 290 291 291 291 293 295 295 293 294 295 297 299 300 300 301 302 302 303 304 304 304 305 306 304
272 276 280 284 288 291 293 295 296 297 298 299 300 301 302 302 302 300 298 296 294 292 291 291 289 290 292 294 296 297 296 295 295 294 294 295 295 295 295 295 294 294 293 293 292 291 291 291 292 292 292 292 292 292 292 292 292 292 293 292 293 292 291 290 291 291 291 292 294 295 295 297 298 300 300 301 301 301 302 302 303 305 305 305 306 306 306
274 279 284 288 290 292 294 296 296 297 297 298 300 301 301 301 299 297 295 293 291 290 289 288 289 291 294 296 297 297 296 296 295 296 296 296 296 296 296 296 295 295 295 294 294 293 293 293 293 294 294 294 294 294 294 294 295 294 294 293 292 292 291 291 292 290 289 289 291 293 295 296 298 299 300 301 301 301 302 302 303 304 305 305 305 305 306
280 285 288 290 292 293 295 295 295 296 297 299 300 300 299 298 296 294 292 290 288 287 288 288 291 294 296 297 298 297 297 297 297 297 297 296 296 296 296 296 296 296 296 296 296 295 295 295 295 295 295 296 296 296 296 296 295 294 293 292 292 291 291 292 292 289 288 289 290 291 293 294 296 297 298 300 301 302 302 303 303 304 305 304 304 305 306
285 287 289 291 292 294 294 294 295 297 298 299 299 298 296 294 292 290 288 288 287 287 289 291 294 296 297 298 298 297 297 297 297 296 296 297 297 297 297 298 298 298 298 298 298 298 298 298 297 298 297 297 297 296 295 294 293 292 292 292 292 291 290 290 290 289 289 291 291 292 293 294 296 297 299 300 301 302 303 303 303 303 304 305 305 306 307
286 287 289 291 292 293 293 295 296 297 298 297 296 294 292 290 288 286 286 287 288 290 293 295 297 298 298 297 297 297 296 296 296 297 298 298 299 299 300 300 301 301 301 301 301 300 300 300 300 299 298 297 296 294 293 293 292 293 292 292 291 289 288 289 290 290 290 291 292 293 294 295 297 299 300 301 302 302 303 303 303 304 305 307 307 308 308
286 288 290 291 291 293 294 295 296 296 295 293 291 290 288 286 286 286 287 288 291 294 297 298 299 299 298 297 297 297 297 297 299 300 300 301 301 302 303 303 304 304 303 303 302 302 301 300 299 298 297 296 295 294 294 295 294 294 293 291 288 287 287 289 291 292 293 293 294 295 296 298 299 300 301 302 302 303 303 304 304 305 306 307 308 308 307
287 288 289 291 292 294 295 295 295 293 291 289 287 287 286 285 285 286 289 293 295 298 299 298 298 299 299 298 298 298 299 300 301 302 303 304 305 306 306 306 305 305 304 303 302 300 299 298 297 296 296 296 297 296 296 296 294 293 290 287 286 286 288 290 292 293 295 295 296 297 299 301 301 302 302 302 303 303 304 304 305 305 307 307 308 308 307
287 288 290 292 293 294 293 292 290 288 287 286 285 285 284 285 287 290 294 296 298 298 298 298 299 300 300 300 300 300 302 303 304 305 306 306 307 307 307 306 305 303 302 301 300 298 297 297 297 297 297 298 298 297 296 294 292 289 287 286 287 288 289 290 292 294 295 297 298 299 300 302 302 303 303 303 303 304 304 305 305 306 307 307 307 307 306
287 289 290 291 291 291 289 287 285 284 283 283 283 284 285 288 292 295 296 297 298 299 300 300 301 301 301 301 302 303 304 306 307 307 307 308 307 307 306 305 303 302 301 300 299 298 298 298 298 298 298 298 297 295 293 290 288 287 287 288 289 289 290 292 293 295 296 298 299 300 301 302 302 303 303 303 304 304 305 306 306 307 307 307 307 306 306
287 288 289 289 289 287 284 282 281 281 282 284 285 287 290 293 295 296 297 298 300 301 301 301 302 302 302 303 304 306 307 308 308 307 307 307 306 306 304 303 302 301 300 300 300 299 299 299 299 299 298 296 294 291 288 286 286 286 288 289 290 291 292 293 294 295 296 297 299 300 302 303 303 302 303 303 304 305 306 306 306 306 307 307 306 306 307
286 287 287 286 284 282 280 280 282 284 286 287 289 291 294 296 297 298 299 300 301 301 301 302 303 304 305 306 307 308 308 308 307 307 306 306 305 304 303 302 301 301 301 301 301 301 301 300 299 298 296 293 289 287 286 286 287 288 289 290 291 292 293 294 295 296 297 298 300 301 302 303 303 303 303 304 305 305 305 306 306 306 306 306 306 307 307
285 284 283 280 279 279 281 283 285 287 289 291 293 296 298 299 299 299 300 301 302 302 303 304 305 306 307 307 307 307 307 306 306 305 305 304 303 302 301 301 302 302 303 303 303 303 302 301 298 295 292 289 287 286 287 288 289 289 290 291 292 293 294 295 297 298 299 300 300 301 302 303 303 303 304 305 305 305 305 306 306 306 306 306 305 305 305
281 279 278 278 279 281 283 285 288 290 293 297 299 299 300 300 300 301 301 302 303 304 305 306 307 308 307 307 307 306 306 305 305 304 303 303 302 302 302 302 303 303 303 303 303 303 302 299 296 292 289 287 287 288 289 289 290 291 292 293 295 296 297 298 299 300 300 301 301 302 303 304 304 304 305 305 305 305 305 305 305 305 304 303 303 303 303
278 277 278 279 280 283 286 290 293 297 299 299 300 299 300 301 302 303 304 304 305 306 307 308 308 308 307 306 306 306 305 305 304 304 303 303 302 302 302 302 302 303 303 303 303 302 299 296 292 290 289 289 290 291 291 292 293 294 295 296 298 298 299 300 300 301 301 302 303 303 304 305 304 304 305 305 305 304 305 305 305 304 303 303 303 303 304
277 277 279 282 285 289 293 296 297 298 298 299 299 301 302 303 304 305 305 306 307 308 308 308 308 307 306 306 306 305 305 305 304 303 303 302 302 302 302 302 302 302 302 302 301 299 295 292 290 290 290 291 292 293 294 295 296 297 297 298 299 300 300 301 302 303 303 304 304 304 305 305 304 304 305 305 305 305 305 305 305 305 304 304 305 305 306
279 282 286 290 293 295 296 296 297 298 299 301 302 303 304 305 306 307 307 308 308 309 308 308 307 307 306 306 306 306 305 305 304 303 303 303 302 302 302 302 302 302 301 300 298 295 292 290 290 290 291 292 293 294 295 296 297 298 299 300 301 301 302 303 304 304 305 305 305 305 306 306 305 305 305 306 305 305 305 305 305 305 305 306 306 306 306
287 291 293 295 296 296 297 298 300 301 302 303 303 304 305 307 308 308 308 309 309 308 308 308 308 307 307 307 307 306 306 305 305 305 304 304 304 304 304 303 303 302 300 297 294 291 290 289 290 292 293 294 295 296 296 297 298 299 300 301 302 303 304 304 305 305 305 306 306 306 306 306 306 306 306 306 305 305 305 306 305 305 305 305 305 305 306
293 294 295 296 297 299 300 302 303 303 304 305 305 306 307 308 308 308 308 308 308 308 308 308 309 309 309 309 309 309 309 309 308 308 308 307 307 307 306 305 303 301 298 294 291 290 289 290 292 293 294 296 296 298 299 299 300 301 302 302 303 304 304 305 305 305 305 306 306 306 306 306 306 305 305 305 305 305 305 305 305 305 305 305 306 306 308
294 295 297 299 301 302 302 303 304 305 306 306 307 307 308 308 308 308 308 309 309 309 310 310 311 312 312 313 313 312 312 312 311 311 311 311 310 309 308 306 304 300 296 292 290 290 291 292 294 295 297 298 298 299 300 300 301 302 302 303 304 304 305 305 305 305 305 305 305 305 305 305 304 304 304 304 304 304 304 304 305 305 306 307 308 310 311
297 299 301 301 302 303 304 305 306 307 307 307 307 308 308 308 309 309 309 310 310 311 312 313 314 314 315 315 315 314 314 314 313 313 313 313 312 311 309 306 303 299 296 294 293 293 294 295 296 297 298 298 299 299 300 301 302 303 304 304 304 305 305 305 305 305 305 305 305 305 305 305 304 304 304 304 305 305 306 307 308 308 309 310 311 312 313
300 301 303 303 304 305 306 307 307 307 307 307 308 308 309 309 310 311 311 312 313 314 315 316 316 316 317 317 316 316 316 315 315 315 315 315 314 312 309 306 302 299 297 296 295 295 296 296 297 298 298 299 300 301 302 303 304 304 305 305 305 305 306 306 305 306 306 305 305 305 305 305 305 306 306 307 308 308 309 310 310 311 311 312 312 312 313
303 304 305 305 306 307 307 307 307 307 308 309 309 309 310 311 312 313 313 314 315 316 317 318 318 318 318 318 318 318 317 317 317 317 317 316 315 312 309 306 303 301 299 297 297 296 296 297 298 299 300 301 302 303 304 305 306 306 306 306 306 306 306 306 306 306 306 306 306 306 307 307 308 308 309 310 310 310 310 310 311 311 311 312 312 313 313
305 306 306 306 307 307 307 308 308 309 309 310 310 311 312 313 314 314 315 316 317 319 320 320 321 321 321 321 320 320 319 319 319 319 318 317 315 312 310 307 305 303 301 300 299 298 299 299 300 301 302 304 305 306 306 307 307 307 307 307 307 307 306 306 306 306 307 307 308 308 309 309 309 310 310 310 310 310 310 310 310 311 311 312 312 313 314
307 307 307 307 307 308 308 309 310 310 311 312 312 314 314 315 316 316 318 319 320 322 322 323 323 323 323 323 322 322 321 321 321 320 319 318 316 313 311 309 307 305 304 303 302 302 302 303 304 305 306 306 307 308 308 308 308 308 308 307 307 307 307 307 308 308 308 309 309 309 310 310 310 310 310 310 309 309 309 310 311 312 312 313 313 314 315
308 308 308 308 309 309 310 310 311 312 314 315 316 317 317 318 319 320 321 323 324 324 325 325 325 325 325 324 324 323 323 323 323 322 320 319 317 315 313 311 309 308 307 307 306 306 306 307 307 308 308 309 309 310 310 309 309 308 308 308 308 308 308 308 309 309 309 309 310 310 310 310 309 309 309 309 309 309 310 311 312 312 313 314 315 316 317
309 309 309 310 310 310 311 312 314 315 317 318 319 320 321 321 322 324 325 326 326 327 327 327 327 326 326 326 326 326 326 325 324 323 322 320 318 317 315 314 313 312 311 311 310 310 310 310 310 311 311 311 311 311 310 310 309 309 309 309 309 309 309 309 309 310 310 310 310 310 309 309 309 309 309 310 310 311 312 312 313 314 315 316 317 317 317
310 310 311 311 312 313 314 315 317 319 320 321 322 323 324 325 326 327 327 328 328 328 329 329 328 328 328 328 328 328 328 327 326 324 323 322 321 320 318 318 317 316 315 315 314 313 313 313 313 312 312 312 311 311 311 311 311 311 310 310 310 310 310 310 310 310 310 310 310 310 310 310 311 311 311 312 312 313 313 314 315 316 317 317 317 317 317
313 313 314 315 315 316 317 319 320 322 322 323 324 325 326 327 328 329 329 330 330 331 331 331 330 330 330 330 330 329 329 329 327 326 325 324 323 322 321 320 319 318 317 317 316 315 314 314 313 313 312 312 312 312 312 312 312 312 312 311 311 311 311 311 311 311 311 311 311 312 312 312 312 313 313 314 314 315 315 316 317 317 317 318 318 318 318
318 318 318 319 319 320 321 322 323 324 324 325 326 327 328 329 329 330 331 331 332 332 332 333 332 332 332 332 331 331 331 330 328 327 326 325 324 323 322 321 320 319 318 317 316 315 314 314 313 313 313 313 313 313 313 313 313 313 313 312 312 312 312 312 312 312 312 312 313 313 313 314 314 315 315 315 316 316 317 317 318 318 318 318 318 319 319
323 322 323 323 323 324 324 324 325 326 327 327 328 329 330 330 331 331 332 332 333 333 333 333 333 333 333 333 332 331 330 329 328 326 326 325 324 324 323 321 320 319 318 317 316 315 315 315 315 315 315 315 315 315 314 314 314 314 313 313 313 312 312 312 313 313 314 314 314 314 315 315 316 316 316 316 316 317 317 317 317 318 318 319 319 320 320
327 327 327 327 327 327 326 327 327 328 328 328 329 329 330 331 331 332 332 333 333 333 333 333 333 334 333 332 331 330 329 328 327 326 325 325 324 323 322 321 319 318 317 317 316 317 317 317 317 317 317 316 316 316 315 315 314 314 313 313 313 313 313 314 314 315 315 315 315 315 316 316 316 316 316 316 316 316 316 317 318 319 319 320 320 321 321
332 332 332 331 331 330 329 329 329 329 329 329 329 330 330 331 331 332 332 333 333 333 333 333 333 333 332 331 329 328 328 327 326 325 325 324 323 322 321 319 319 318 318 318 319 319 319 319 318 318 318 317 317 316 316 315 314 313 313 314 314 315 315 315 315 315 315 316 316 316 316 316 316 316 316 317 317 317 318 319 320 320 321 321 322 322 322
339 338 337 336 335 334 333 332 331 331 330 331 330 331 331 331 331 332 332 333 333 333 332 332 332 331 330 328 328 327 326 326 325 325 324 323 321 321 320 319 320 320 321 321 321 321 320 319 319 319 318 317 316 316 315 315 314 315 315 316 316 316 316 316 316 316 316 317 316 316 316 316 316 317 317 318 319 320 320 321 322 322 323 323 323 323 323
345 343 342 340 339 337 336 335 334 333 333 332 332 332 332 332 332 333 332 332 332 331 331 330 330 329 328 327 327 326 326 325 324 323 322 321 321 321 322 323 323 323 323 323 322 321 320 319 319 318 317 316 316 315 315 316 316 316 316 317 317 317 317 317 317 317 317 317 316 316 316 316 317 318 319 320 321 321 322 322 323 323 323 324 324 323 323
348 346 345 343 342 340 339 338 336 335 334 333 333 333 332 332 332 331 331 331 331 330 330 329 329 328 328 327 327 326 325 324 323 322 322 323 324 325 325 326 325 324 323 322 321 320 319 319 318 317 317 316 316 316 317 317 317 317 317 317 317 317 318 318 317 317 317 317 317 317 317 318 319 320 321 322 322 323 323 323 323 324 324 324 324 324 323
352 349 347 345 343 342 340 338 337 335 334 334 333 333 332 331 331 331 330 330 330 330 329 329 329 328 328 327 326 325 324 323 323 324 325 326 327 327 326 326 325 323 322 321 320 319 319 318 318 318 318 317 318 318 318 318 318 318 318 318 318 318 318 318 318 318 318 318 318 318 319 320 321 322 323 323 324 324 324 324 325 325 325 325 325 325 325
356 354 351 349 347 345 342 340 339 337 336 335 334 333 332 332 331 331 330 330 330 329 329 328 328 327 326 325 324 324 324 325 326 327 328 328 327 326 325 324 323 322 321 321 320 319 319 318 318 319 319 319 319 319 319 319 319 319 319 319 319 319 319 319 318 318 318 318 319 319 321 322 323 324 324 325 325 325 325 326 326 326 327 327 327 327 327
359 357 356 354 351 349 347 345 342 340 338 337 336 334 333 332 331 331 331 330 329 328 327 327 326 325 325 325 325 326 327 328 329 328 328 327 326 325 324 323 322 322 321 321 320 319 319 319 319 320 320 319 319 320 320 320 320 320 321 320 320 320 320 320 319 319 319 320 320 322 323 324 325 325 326 326 326 326 327 327 327 327 328 328 328 328 328
359 357 356 354 352 351 349 348 346 344 342 340 338 336 335 334 333 331 330 329 328 328 327 327 327 327 327 328 329 329 329 329 328 327 326 325 324 324 323 323 322 322 321 321 320 320 320 320 320 320 320 320 321 321 321 322 322 322 322 321 321 321 321 321 321 321 321 322 323 324 325 326 327 327 327 327 327 328 328 328 328 328 329 329 329 329 329
357 355 354 352 350 350 349 348 347 345 343 341 340 339 337 335 334 332 331 330 330 329 329 328 328 329 329 329 329 329 328 327 326 325 325 324 324 324 324 323 323 322 322 322 321 321 321 321 321 322 322 322 322 323 323 323 323 323 322 322 322 322 322 322 322 323 323 324 325 326 327 328 328 328 328 328 329 329 329 329 329 330 330 330 331 331 331
355 353 351 349 347 347 346 346 345 344 343 341 340 339 338 336 335 333 332 331 331 330 329 329 329 329 328 328 327 326 326 325 325 324 324 324 324 324 324 324 323 323 323 322 322 321 322 322 323 323 324 324 324 324 324 324 324 324 323 324 324 324 324 324 324 325 325 326 327 328 329 330 330 330 330 330 330 329 330 330 331 331 331 332 332 332 332
355 352 350 348 346 345 344 343 343 342 341 341 340 338 337 336 335 333 332 331 330 330 329 328 327 327 326 325 325 324 324 324 324 324 325 325 325 325 324 324 324 323 323 322 322 322 323 324 324 325 325 325 326 326 325 325 325 325 325 325 325 325 325 325 325 326 327 328 329 331 331 331 331 330 330 331 330 331 331 332 332 332 333 333 333 333 333
356 353 351 348 346 345 343 342 341 340 340 340 339 338 337 336 334 333 331 330 329 328 327 326 325 324 324 323 324 324 324 324 325 325 325 325 325 325 325 325 324 324 324 323 324 324 325 325 326 327 327 327 326 326 326 326 326 326 326 326 326 326 326 327 327 328 329 330 331 332 332 332 331 331 331 331 332 332 332 333 333 333 334 334 334 334 334
356 355 353 351 349 347 344 341 340 338 338 338 337 337 337 336 334 333 331 330 328 327 326 324 324 324 323 324 324 324 325 325 325 325 326 326 326 326 326 325 325 325 325 325 325 326 326 327 327 328 327 327 327 327 327 327 327 328 327 327 327 327 328 328 329 330 331 332 333 333 333 332 332 332 332 333 333 333 333 333 334 334 334 335 335 334 334
356 355 353 351 350 348 345 342 341 339 337 336 336 336 335 335 334 333 331 330 328 327 326 325 325 325 324 324 325 325 326 326 326 326 326 326 326 326 326 326 326 326 326 327 327 327 327 328 328 328 328 328 327 328 328 329 329 329 328 328 328 329 329 330 331 332 333 334 334 334 333 333 333 333 333 334 334 334 334 334 335 335 335 335 335 335 335
354 353 352 351 349 348 345 344 343 341 339 337 336 335 334 333 333 332 331 330 329 328 327 327 326 326 326 326 326 327 327 327 327 327 327 327 327 327 327 327 327 328 328 328 328 328 328 329 329 329 329 329 329 330 330 330 329 329 329 330 330 330 331 332 333 334 334 334 335 334 334 334 334 335 335 335 335 335 335 336 336 336 336 336 336 336 336
353 352 351 350 348 347 346 345 344 342 341 339 337 335 334 333 332 332 331 331 330 330 329 329 328 328 328 328 328 328 328 328 328 328 328 328 328 328 328 328 329 329 329 329 329 329 329 330 330 330 330 330 330 330 330 330 330 330 331 331 332 332 333 333 334 334 335 335 335 335 335 335 336 336 336 336 336 336 337 337 337 337 337 337 337 337 337
351 350 349 349 348 347 346 345 344 343 341 340 338 336 334 333 332 332 332 332 332 331 331 330 330 330 330 330 330 330 330 330 329 329 329 329 329 329 329 330 330 331 331 330 331 331 330 330 330 331 331 331 331 331 332 332 332 332 332 333 333 333 334 334 335 335 336 336 336 336 336 337 337 337 337 337 337 337 338 337 337 337 337 338 338 338 338
349 349 349 348 348 346 345 344 343 343 342 340 339 337 335 334 334 333 333 333 333 332 332 332 332 332 331 331 331 331 331 331 330 330 330 330 330 330 331 331 331 332 332 332 332 332 331 331 331 332 332 333 333 333 333 333 333 333 333 334 334 334 334 335 336 336 337 337 337 337 337 338 338 338 338 338 338 338 338 338 338 338 339 339 339 339 339
347 347 347 347 346 345 344 344 343 342 341 340 339 337 336 335 334 334 334 334 334 334 333 333 333 333 333 333 333 332 332 331 331 331 331 331 331 332 332 332 332 333 333 333 333 333 332 332 333 334 334 334 334 334 334 334 334 334 334 335 335 335 335 336 336 337 337 338 338 338 338 339 339 339 339 339 339 339 339 339 339 340 339 339 339 339 339
345 346 345 345 345 344 343 343 342 341 341 340 339 338 336 335 335 335 335 335 335 335 334 334 334 334 334 334 333 333 333 332 332 332 332 332 332 332 333 333 334 334 334 334 334 334 333 334 334 335 335 334 335 335 335 335 335 335 335 335 336 336 336 337 337 337 338 338 339 339 339 339 339 339 339 339 339 339 339 340 340 340 340 339 339 339 339
Height
10662 10661 10660 10659 10658 10657 10655 10654 10652 10650 10647 10645 10643 10640 10638 10635 10632 10630 10627 10625 10623 10622 10620 10619 10617 10616 10614 10613 10611 10610 10608 10606 10605 10603 10601 10599 10597 10595 10592 10590 10588 10586 10584 10581 10579 10577 10574 10571 10569 10568 10565 10562 10560 10558 10555 10552 10549 10546 10543 10539 10536 10533 10531 10529 10526 10523 10518 10515 10515 10513 10510 10506 10504 10501 10498 10494 10490 10486 10482 10478 10477 10475 10470 10461 10458 10454 10447
10659 10658 10658 10657 10655 10654 10652 10650 10648 10646 10644 10641 10639 10636 10634 10631 10628 10626 10624 10622 10621 10619 10618 10617 10615 10613 10612 10610 10609 10607 10605 10604 10602 10600 10598 10596 10594 10591 10589 10587 10584 10582 10580 10577 10575 10573 10570 10567 10564 10563 10560 10557 10555 10552 10550 10547 10544 10541 10538 10534 10531 10528 10524 10523 10522 10519 10514 10512 10510 10508 10505 10501 10498 10495 10492 10488 10483 10479 10475 10470 10467 10466 10462 10453 10448 10445 10436
10656 10656 10655 10654 10653 10651 10649 10647 10644 10642 10640 10637 10635 10632 10630 10627 10625 10623 10621 10620 10618 10617 10616 10614 10613 10611 10609 10608 10606 10604 10603 10601 10599 10597 10595 10592 10590 10588 10585 10583 10581 10578 10576 10573 10570 10568 10566 10563 10560 10558 10555 10552 10550 10547 10544 10542 10539 10536 10533 10530 10526 10522 10518 10517 10516 10514 10511 10509 10507 10504 10501 10497 10493 10490 10486 10482 10477 10472 10467 10463 10458 10457 10456 10448 10441 10438 10432
10654 10653 10653 10651 10649 10647 10645 10643 10641 10638 10636 10634 10631 10629 10626 10624 10622 10620 10619 10617 10616 10615 10614 10612 10611 10609 10607 10605 10603 10602 10600 10598 10596 10594 10591 10589 10587 10584 10582 10579 10576 10574 10571 10569 10566 10563 10561 10559 10556 10554 10551 10548 10545 10542 10540 10537 10534 10531 10527 10524 10522 10517 10513 10511 10511 10509 10507 10506 10504 10501 10497 10493 10490 10486 10481 10476 10471 10465 10458 10454 10449 10446 10446 10442 10432 10429 10427
10651 10651 10649 10648 10646 10644 10641 10639 10637 10635 10632 10630 10628 10625 10623 10621 10619 10617 10616 10615 10614 10613 10612 10610 10608 10606 10605 10602 10600 10599 10597 10594 10592 10590 10588 10585 10583 10580 10578 10575 10573 10570 10567 10564 10562 10559 10556 10554 10552 10549 10547 10544 10541 10538 10535 10532 10528 10526 10523 10520 10517 10514 10509 10507 10506 10503 10502 10501 10499 10496 10493 10489 10485 10480 10475 10470 10464 10458 10451 10444 10440 10436 10435 10432 10424 10415 10412
10649 10647 10646 10644 10642 10640 10638 10636 10633 10631 10629 10626 10624 10622 10620 10618 10617 10615 10614 10613 10612 10611 10609 10607 10605 10604 10602 10600 10597 10595 10593 10591 10589 10586 10584 10581 10579 10577 10574 10571 10569 10566 10563 10561 10558 10555 10552 10549 10546 10544 10541 10539 10536 10533 10530 10527 10524 10521 10518 10515 10513 10510 10506 10504 10502 10498 10497 10496 10493 10490 10487 10483 10480 10475 10469 10463 10457 10450 10443 10436 10430 10425 10422 10419 10414 10405 10397
10645 10644 10642 10641 10639 10637 10634 10632 10629 10627 10625 10623 10621 10619 10618 10616 10615 10613 10612 10611 10610 10608 10606 10604 10602 10601 10599 10596 10594 10592 10590 10587 10585 10583 10580 10578 10575 10573 10570 10567 10565 10562 10559 10556 10553 10550 10547 10544 10541 10538 10536 10533 10531 10528 10525 10522 10519 10516 10514 10511 10509 10507 10503 10501 10498 10493 10490 10489 10487 10484 10480 10476 10473 10468 10461 10456 10450 10443 10436 10427 10420 10416 10412 10407 10403 10397 10388
10642 10641 10639 10637 10635 10633 10631 10628 10626 10623 10621 10620 10618 10617 10615 10614 10613 10611 10610 10609 10607 10605 10604 10601 10599 10597 10595 10593 10591 10589 10586 10584 10582 10579 10576 10574 10571 10569 10566 10563 10560 10557 10554 10551 10548 10545 10542 10539 10536 10533 10531 10528 10526 10523 10520 10517 10514 10512 10509 10507 10506 10504 10500 10497 10495 10489 10484 10481 10479 10477 10474 10469 10464 10459 10453 10448 10442 10435 10428 10419 10410 10406 10403 10397 10390 10384 10378
10639 10637 10635 10633 10631 10629 10627 10624 10622 10620 10619 10617 10616 10615 10614 10612 10611 10609 10608 10606 10604 10602 10601 10599 10596 10594 10592 10590 10587 10585 10583 10580 10578 10575 10572 10570 10567 10564 10561 10558 10555 10552 10549 10546 10543 10540 10537 10534 10532 10529 10527 10524 10521 10519 10516 10513 10510 10508 10506 10504 10502 10500 10497 10494 10491 10486 10479 10475 10472 10469 10467 10463 10456 10449 10444 10438 10433 10427 10420 10411 10401 10395 10393 10390 10381 10372 10366
10635 10633 10631 10629 10627 10625 10623 10621 10619 10618 10616 10615 10614 10613 10612 10611 10609 10607 10605 10603 10602 10600 10597 10596 10593 10591 10589 10586 10583 10581 10579 10576 10573 10570 10568 10565 10563 10559 10557 10554 10551 10548 10545 10541 10538 10536 10533 10530 10528 10525 10523 10520 10517 10514 10512 10509 10507 10504 10502 10500 10498 10496 10493 10489 10486 10482 10476 10470 10466 10462 10459 10456 10451 10443 10436 10429 10424 10418 10411 10402 10391 10381 10377 10375 10368 10360 10354
10632 10630 10627 10625 10623 10621 10620 10618 10617 10615 10614 10613 10612 10611 10610 10608 10607 10605 10603 10601 10599 10597 10594 10592 10590 10587 10585 10582 10580 10577 10574 10572 10569 10566 10563 10560 10558 10555 10552 10549 10546 10543 10540 10537 10534 10531 10528 10526 10523 10521 10518 10515 10512 10510 10508 10506 10504 10501 10499 10497 10494 10491 10488 10485 10481 10478 10472 10466 10461 10456 10451 10446 10441 10435 10428 10421 10416 10410 10402 10394 10384 10375 10368 10361 10352 10345 10339
10628 10626 10624 10622 10620 10619 10617 10616 10615 10614 10613 10612 10611 10609 10608 10606 10604 10602 10600 10598 10596 10594 10591 10589 10586 10584 10581 10578 10576 10573 10570 10568 10565 10562 10559 10556 10553 10550 10547 10545 10542 10539 10536 10533 10530 10527 10524 10521 10519 10516 10514 10511 10509 10507 10505 10502 10500 10498 10495 10493 10489 10486 10483 10479 10476 10472 10468 10462 10456 10451 10446 10439 10430 10424 10419 10412 10406 10401 10395 10386 10374 10366 10360 10350 10339 10330 10322
10624 10623 10621 10620 10618 10617 10616 10614 10613 10612 10611 10610 10609 10607 10605 10604 10602 10600 10598 10595 10593 10590 10588 10585 10583 10580 10577 10574 10572 10569 10566 10563 10561 10558 10555 10552 10549 10546 10543 10540 10537 10534 10531 10528 10525 10522 10519 10517 10514 10512 10510 10508 10506 10504 10502 10499 10497 10494 10491 10488 10485 10481 10478 10474 10470 10465 10460 10456 10449 10443 10440 10434 10424 10415 10410 10404 10395 10387 10384 10379 10367 10354 10346 10338 10330 10323 10313
10622 10620 10619 10618 10617 10615 10614 10613 10612 10611 10609 10608 10607 10605 10603 10601 10599 10597 10594 10592 10589 10587 10584 10582 10579 10576 10573 10570 10567 10565 10562 10559 10557 10554 10551 10548 10545 10542 10539 10536 10533 10530 10527 10524 10521 10518 10515 10513 10511 10509 10507 10505 10503 10501 10498 10496 10493 10489 10486 10483 10479 10475 10471 10467 10463 10458 10452 10448 10442 10434 10430 10425 10416 10407 10401 10395 10386 10376 10371 10369 10363 10351 10339 10329 10322 10316 10305
10620 10619 10618 10617 10615 10614 10613 10612 10610 10609 10607 10606 10604 10602 10600 10598 10596 10593 10591 10588 10586 10583 10581 10578 10575 10572 10569 10566 10564 10561 10558 10555 10552 10549 10546 10543 10540 10538 10535 10532 10529 10526 10522 10519 10517 10515 10512 10510 10508 10506 10504 10502 10500 10497 10495 10492 10488 10485 10481 10477 10473 10468 10464 10459 10455 10450 10444 10439 10433 10427 10421 10415 10406 10398 10391 10384 10375 10365 10358 10354 10348 10339 10327 10316 10310 10303 10291
10619 10618 10616 10615 10614 10613 10611 10610 10608 10607 10605 10603 10602 10599 10597 10595 10592 10590 10587 10585 10582 10579 10577 10574 10571 10568 10566 10563 10560 10557 10554 10551 10548 10545 10542 10539 10536 10533 10530 10527 10524 10521 10518 10516 10513 10511 10510 10508 10506 10504 10501 10499 10497 10494 10490 10487 10484 10480 10475 10472 10467 10462 10457 10451 10446 10440 10435 10429 10423 10417 10412 10405 10395 10387 10381 10373 10362 10352 10345 10340 10333 10323 10308 10295 10288 10283 10274
10617 10616 10615 10614 10613 10611 10610 10608 10606 10605 10603 10601 10599 10596 10594 10592 10589 10586 10584 10581 10578 10576 10573 10570 10568 10565 10562 10559 10556 10553 10550 10547 10544 10541 10538 10535 10531 10528 10525 10522 10520 10517 10515 10513 10510 10509 10507 10505 10503 10500 10498 10495 10493 10490 10486 10482 10479 10475 10470 10465 10460 10455 10449 10444 10437 10431 10425 10419 10412 10405 10399 10393 10382 10373 10369 10362 10350 10338 10331 10324 10318 10311 10300 10283 10269 10262 10256
10616 10615 10613 10612 10611 10609 10607 10606 10604 10602 10600 10598 10595 10593 10590 10588 10585 10583 10580 10577 10575 10572 10569 10567 10564 10561 10558 10555 10552 10548 10545 10542 10539 10536 10533 10530 10527 10524 10521 10519 10516 10514 10512 10510 10508 10506 10504 10502 10500 10497 10494 10492 10489 10486 10482 10477 10473 10469 10464 10459 10453 10448 10442 10436 10429 10422 10416 10409 10402 10394 10387 10381 10370 10359 10354 10350 10340 10328 10318 10308 10298 10292 10289 10280 10264 10250 10241
10614 10613 10611 10610 10608 10607 10605 10603 10601 10599 10597 10594 10592 10589 10587 10584 10581 10579 10576 10574 10571 10568 10566 10563 10560 10557 10553 10550 10547 10544 10541 10538 10535 10532 10529 10526 10523 10521 10518 10516 10513 10511 10509 10507 10506 10504 10501 10499 10497 10494 10491 10488 10485 10481 10477 10472 10467 10463 10459 10453 10447 10441 10436 10429 10421 10413 10406 10399 10392 10384 10377 10370 10361 10349 10340 10334 10327 10318 10309 10300 10287 10274 10267 10264 10254 10239 10225
10612 10611 10609 10607 10606 10604 10602 10600 10598 10596 10593 10591 10588 10586 10583 10581 10578 10576 10573 10570 10568 10565 10562 10559 10556 10553 10549 10546 10543 10540 10537 10534 10531 10528 10526 10523 10520 10518 10515 10513 10511 10509 10507 10505 10503 10501 10498 10496 10493 10490 10487 10483 10480 10477 10473 10467 10462 10458 10453 10447 10441 10434 10428 10422 10414 10406 10398 10391 10382 10375 10367 10359 10351 10343 10333 10324 10316 10306 10297 10289 10280 10265 10249 10240 10231 10218 10203
10610 10608 10606 10605 10603 10601 10599 10596 10594 10592 10590 10587 10585 10583 10580 10578 10575 10572 10570 10567 10564 10561 10558 10555 10552 10549 10546 10543 10540 10537 10534 10531 10528 10525 10523 10520 10518 10515 10513 10511 10508 10506 10504 10502 10500 10498 10495 10492 10489 10486 10482 10478 10474 10471 10468 10463 10457 10452 10446 10440 10433 10426 10420 10413 10404 10396 10390 10382 10373 10363 10354 10345 10336 10328 10320 10312 10301 10290 10278 10268 10259 10247 10232 10218 10207 10196 10184
10607 10605 10604 10602 10600 10598 10595 10593 10591 10589 10587 10584 10582 10579 10577 10574 10572 10569 10566 10563 10560 10558 10555 10552 10549 10546 10543 10540 10537 10535 10532 10529 10526 10523 10520 10517 10515 10513 10511 10509 10506 10504 10502 10500 10498 10495 10491 10489 10485 10481 10478 10473 10469 10465 10461 10456 10451 10445 10438 10432 10425 10417 10411 10403 10395 10386 10379 10372 10365 10354 10342 10332 10321 10311 10301 10292 10280 10268 10256 10243 10231 10221 10211 10199 10190 10182 10173
10605 10603 10601 10599 10597 10595 10592 10590 10588 10586 10584 10581 10579 10576 10574 10571 10568 10566 10563 10560 10558 10555 10552 10550 10547 10544 10541 10538 10535 10532 10529 10526 10523 10520 10518 10515 10513 10510 10508 10506 10504 10502 10500 10497 10494 10491 10488 10484 10481 10477 10473 10469 10464 10459 10454 10448 10443 10437 10430 10423 10416 10408 10400 10393 10385 10377 10368 10360 10353 10343 10330 10317 10306 10295 10283 10272 10260 10248 10238 10228 10217 10205 10195 10184 10174 10166 10158
10602 10600 10598 10596 10594 10592 10590 10587 10585 10583 10581 10578 10576 10573 10571 10568 10565 10563 10560 10558 10555 10553 10550 10547 10544 10541 10538 10535 10532 10530 10527 10524 10521 10518 10516 10513 10511 10509 10507 10504 10502 10500 10497 10494 10490 10487 10483 10480 10476 10472 10467 10463 10458 10453 10447 10440 10434 10428 10421 10414 10407 10399 10391 10383 10375 10366 10357 10349 10339 10329 10317 10304 10293 10283 10272 10259 10246 10234 10222 10213 10205 10196 10184 10172 10161 10151 10142
10599 10597 10595 10593 10591 10589 10587 10585 10582 10580 10578 10575 10573 10570 10568 10565 10563 10561 10558 10556 10553 10550 10548 10545 10542 10539 10536 10533 10530 10527 10525 10522 10519 10516 10514 10512 10509 10507 10504 10502 10499 10497 10494 10490 10486 10482 10479 10475 10470 10466 10461 10456 10451 10446 10440 10433 10426 10419 10412 10405 10397 10390 10381 10373 10364 10354 10345 10337 10328 10317 10304 10290 10277 10268 10259 10248 10237 10226 10212 10200 10192 10183 10173 10161 10148 10136 10127
10596 10594 10592 10590 10588 10586 10584 10582 10579 10577 10575 10572 10570 10568 10565 10563 10561 10558 10556 10554 10551 10548 10546 10543 10540 10537 10534 10531 10528 10525 10523 10520 10517 10515 10512 10509 10507 10504 10502 10499 10496 10493 10490 10486 10482 10478 10473 10469 10464 10460 10455 10450 10444 10438 10432 10426 10418 10411 10403 10395 10387 10379 10370 10362 10353 10344 10333 10325 10316 10307 10297 10284 10269 10257 10247 10236 10225 10216 10204 10192 10180 10170 10160 10150 10138 10123 10110
10594 10592 10590 10588 10586 10583 10581 10579 10577 10574 10572 10570 10567 10565 10563 10561 10558 10556 10554 10551 10549 10547 10544 10541 10538 10535 10532 10529 10526 10524 10521 10518 10515 10513 10510 10507 10504 10502 10499 10496 10493 10489 10486 10482 10477 10473 10468 10463 10458 10454 10449 10444 10438 10431 10424 10417 10409 10401 10393 10385 10376 10368 10359 10350 10341 10332 10322 10313 10303 10294 10286 10276 10262 10248 10236 10224 10212 10201 10190 10179 10169 10158 10146 10137 10127 10115 10100
10591 10589 10587 10585 10583 10581 10579 10576 10574 10572 10570 10568 10565 10563 10561 10559 10557 10554 10552 10550 10547 10545 10542 10539 10536 10533 10530 10527 10524 10522 10519 10516 10514 10511 10508 10505 10502 10499 10496 10492 10489 10485 10481 10477 10473 10468 10463 10458 10453 10448 10443 10437 10431 10423 10415 10408 10400 10391 10383 10374 10364 10355 10346 10337 10328 10318 10308 10299 10289 10278 10268 10258 10245 10232 10220 10209 10198 10187 10175 10164 10154 10144 10132 10122 10113 10104 10093
10589 10587 10585 10583 10581 10578 10576 10574 10572 10570 10568 10566 10564 10562 10559 10557 10555 10553 10550 10548 10545 10543 10540 10537 10534 10531 10529 10526 10523 10520 10517 10514 10511 10508 10505 10502 10499 10496 10493 10489 10485 10481 10477 10473 10468 10463 10458 10453 10447 10442 10436 10430 10422 10415 10406 10398 10390 10382 10372 10362 10352 10342 10333 10323 10313 10304 10293 10282 10271 10260 10250 10240 10228 10216 10204 10192 10182 10171 10160 10149 10139 10129 10118 10109 10099 10089 10080
10586 10584 10582 10580 10578 10576 10574 10572 10570 10568 10566 10564 10562 10560 10558 10555 10553 10551 10548 10546 10544 10541 10538 10536 10533 10530 10527 10524 10521 10518 10515 10512 10509 10506 10503 10500 10496 10493 10490 10486 10481 10477 10473 10468 10463 10458 10452 10446 10441 10435 10429 10421 10413 10405 10396 10388 10380 10370 10361 10351 10340 10330 10320 10309 10299 10289 10279 10267 10254 10242 10232 10224 10214 10202 10189 10177 10165 10155 10145 10136 10127 10118 10107 10097 10088 10078 10067
10585 10583 10581 10579 10577 10575 10573 10571 10569 10567 10565 10563 10561 10558 10556 10554 10552 10549 10547 10544 10542 10539 10536 10534 10531 10528 10525 10523 10520 10517 10513 10510 10507 10504 10501 10497 10494 10490 10486 10482 10477 10473 10468 10463 10457 10452 10445 10439 10433 10426 10420 10412 10403 10394 10386 10377 10368 10358 10348 10338 10328 10317 10306 10295 10284 10274 10264 10254 10242 10229 10217 10208 10200 10191 10180 10169 10158 10147 10137 10127 10118 10109 10098 10087 10076 10065 10054
10584 10582 10580 10578 10576 10574 10572 10570 10568 10566 10564 10562 10559 10557 10555 10553 10550 10548 10545 10543 10540 10538 10535 10532 10529 10526 10523 10520 10518 10515 10512 10508 10505 10502 10498 10495 10491 10487 10482 10478 10473 10468 10462 10457 10450 10444 10437 10430 10424 10417 10410 10401 10393 10384 10375 10366 10357 10346 10336 10326 10316 10305 10293 10282 10270 10260 10250 10241 10232 10222 10210 10198 10187 10178 10170 10161 10152 10142 10131 10121 10110 10099 10088 10077 10065 10053 10041
10583 10581 10579 10577 10575 10573 10571 10569 10567 10565 10562 10560 10558 10556 10553 10551 10549 10546 10544 10541 10538 10536 10533 10530 10527 10524 10522 10519 10516 10513 10509 10506 10503 10499 10495 10491 10488 10483 10479 10473 10468 10462 10456 10449 10442 10435 10428 10421 10414 10407 10399 10390 10381 10373 10364 10354 10344 10334 10323 10313 10303 10292 10281 10269 10258 10248 10238 10228 10219 10210 10201 10191 10180 10169 10158 10149 10140 10131 10120 10110 10100 10088 10076 10064 10052 10040 10028
10582 10580 10579 10577 10574 10572 10570 10568 10566 10564 10561 10559 10557 10554 10552 10549 10547 10544 10542 10539 10536 10534 10531 10528 10525 10522 10520 10517 10513 10510 10507 10504 10500 10496 10492 10488 10484 10479 10474 10468 10462 10455 10448 10442 10434 10426 10419 10412 10404 10397 10389 10380 10370 10362 10353 10342 10331 10320 10310 10300 10289 10279 10269 10259 10247 10237 10227 10218 10208 10198 10189 10180 10171 10161 10150 10139 10128 10118 10107 10096 10086 10076 10064 10052 10041 10029 10017
10582 10580 10578 10576 10574 10571 10569 10567 10565 10562 10560 10558 10556 10553 10551 10548 10545 10543 10540 10537 10535 10532 10529 10526 10524 10520 10517 10514 10511 10507 10504 10500 10496 10492 10488 10484 10479 10474 10468 10462 10455 10448 10440 10433 10426 10418 10410 10402 10395 10388 10379 10369 10359 10350 10341 10331 10320 10309 10299 10289 10278 10268 10259 10249 10239 10227 10217 10208 10199 10189 10179 10170 10161 10151 10140 10129 10118 10108 10098 10087 10076 10066 10056 10045 10033 10021 10010
10582 10579 10577 10575 10573 10571 10568 10566 10564 10561 10559 10557 10554 10552 10549 10546 10544 10541 10539 10536 10533 10530 10527 10524 10521 10517 10514 10511 10507 10504 10500 10496 10492 10488 10483 10478 10472 10467 10461 10454 10447 10440 10433 10425 10417 10409 10401 10393 10385 10378 10368 10358 10348 10338 10329 10320 10309 10298 10288 10278 10268 10258 10249 10240 10230 10219 10208 10198 10188 10178 10168 10158 10149 10139 10129 10118 10107 10098 10088 10078 10069 10059 10049 10039 10027 10015 10004
10581 10579 10577 10575 10572 10570 10568 10565 10563 10561 10558 10555 10553 10550 10548 10545 10542 10540 10537 10534 10531 10528 10525 10522 10518 10515 10511 10507 10503 10500 10496 10491 10487 10482 10477 10471 10465 10460 10454 10447 10440 10433 10425 10417 10409 10400 10391 10383 10375 10366 10357 10346 10336 10326 10317 10308 10297 10287 10277 10268 10258 10248 10238 10229 10219 10208 10198 10187 10177 10167 10157 10146 10136 10126 10117 10107 10096 10086 10075 10065 10056 10047 10038 10029 10018 10006 9995
10581 10579 10577 10574 10572 10570 10567 10565 10562 10560 10557 10554 10552 10549 10546 10543 10540 10538 10535 10532 10529 10526 10523 10519 10516 10512 10508 10504 10500 10495 10491 10486 10481 10476 10470 10465 10459 10453 10447 10440 10433 10426 10417 10409 10400 10391 10382 10372 10364 10355 10345 10335 10325 10315 10305 10296 10287 10277 10267 10257 10248 10238 10228 10218 10209 10199 10189 10179 10169 10159 10149 10140 10129 10118 10106 10095 10085 10074 10064 10053 10043 10034 10025 10016 10006 9995 9985
10580 10578 10576 10574 10571 10569 10566 10564 10561 10559 10556 10553 10550 10547 10545 10542 10539 10535 10532 10529 10526 10523 10519 10516 10512 10509 10505 10500 10496 10490 10486 10481 10475 10470 10464 10459 10453 10447 10440 10433 10425 10416 10408 10399 10389 10380 10371 10362 10353 10344 10334 10324 10314 10305 10295 10286 10276 10266 10256 10246 10236 10227 10217 10208 10198 10188 10178 10169 10160 10150 10140 10132 10123 10112 10100 10088 10076 10065 10054 10044 10034 10025 10016 10007 9997 9987 9976
10580 10577 10575 10573 10570 10568 10565 10563 10560 10557 10554 10552 10549 10546 10543 10540 10537 10533 10530 10527 10523 10520 10516 10512 10508 10504 10500 10495 10491 10485 10480 10475 10470 10465 10459 10453 10446 10439 10432 10424 10416 10407 10398 10388 10378 10368 10360 10351 10342 10333 10323 10313 10303 10294 10284 10275 10265 10255 10245 10235 10226 10216 10207 10197 10187 10177 10167 10158 10148 10138 10128 10119 10110 10100 10090 10078 10068 10057 10047 10036 10026 10017 10008 9999 9989 9979 9968
10579 10576 10574 10572 10569 10567 10564 10561 10558 10555 10552 10549 10546 10543 10540 10537 10534 10530 10527 10523 10520 10516 10512 10508 10504 10499 10495 10490 10486 10481 10476 10471 10465 10460 10453 10447 10439 10432 10424 10415 10406 10397 10387 10377 10367 10357 10348 10340 10331 10322 10312 10302 10292 10283 10273 10263 10254 10244 10234 10225 10215 10206 10196 10186 10176 10166 10157 10148 10138 10129 10119 10109 10098 10089 10078 10067 10057 10047 10038 10028 10018 10008 9999 9990 9981 9971 9960
10578 10576 10573 10571 10568 10565 10563 10560 10557 10554 10550 10547 10544 10540 10537 10534 10530 10527 10524 10520 10516 10512 10508 10504 10500 10495 10491 10486 10482 10477 10471 10466 10460 10454 10447 10440 10432 10424 10415 10406 10396 10386 10376 10366 10355 10346 10336 10328 10319 10310 10301 10291 10281 10272 10262 10253 10243 10234 10224 10215 10205 10196 10187 10177 10167 10157 10148 10139 10130 10119 10109 10098 10087 10077 10067 10057 10047 10037 10027 10018 10009 10000 9990 9981 9973 9964 9953
10578 10575 10572 10570 10567 10564 10561 10558 10555 10552 10548 10545 10541 10538 10534 10531 10528 10524 10520 10517 10513 10509 10505 10501 10496 10492 10487 10483 10477 10472 10466 10460 10454 10447 10439 10432 10424 10415 10406 10397 10387 10377 10366 10355 10345 10335 10325 10317 10308 10299 10289 10279 10270 10261 10252 10243 10233 10224 10215 10205 10196 10187 10178 10169 10159 10149 10139 10130 10120 10110 10099 10088 10076 10066 10057 10048 10038 10027 10017 10007 9999 9990 9982 9973 9964 9955 9946
10577 10574 10571 10568 10565 10562 10559 10556 10553 10550 10546 10543 10539 10536 10532 10528 10525 10521 10518 10514 10510 10506 10501 10497 10493 10488 10483 10478 10473 10467 10461 10454 10447 10439 10431 10423 10415 10406 10397 10387 10377 10366 10355 10345 10334 10324 10315 10307 10298 10289 10279 10270 10261 10252 10243 10234 10225 10216 10207 10197 10188 10179 10169 10160 10150 10140 10130 10120 10110 10100 10090 10079 10068 10058 10048 10040 10030 10019 10010 10000 9990 9981 9972 9963 9954 9946 9938
10576 10573 10570 10567 10564 10560 10557 10554 10551 10548 10544 10541 10537 10534 10530 10526 10522 10518 10515 10511 10506 10502 10498 10493 10488 10484 10478 10473 10467 10461 10454 10447 10439 10431 10423 10414 10406 10397 10387 10377 10367 10356 10345 10334 10324 10315 10305 10297 10289 10281 10272 10262 10254 10245 10236 10227 10218 10208 10199 10189 10179 10169 10160 10151 10141 10131 10121 10111 10101 10091 10081 10071 10061 10050 10040 10031 10021 10011 10002 9993 9984 9975 9965 9956 9947 9938 9929
10575 10572 10569 10566 10562 10559 10556 10552 10549 10545 10542 10538 10534 10531 10527 10523 10519 10516 10512 10507 10503 10499 10494 10489 10484 10479 10473 10467 10461 10454 10446 10438 10430 10422 10413 10405 10396 10387 10377 10367 10357 10347 10336 10325 10315 10306 10297 10288 10281 10273 10263 10254 10245 10237 10228 10219 10209 10200 10191 10181 10171 10161 10151 10141 10132 10122 10112 10101 10092 10082 10073 10063 10053 10042 10031 10022 10013 10003 9993 9984 9976 9967 9958 9949 9940 9930 9921
10573 10570 10567 10564 10560 10557 10553 10549 10546 10542 10539 10535 10531 10527 10524 10520 10516 10512 10508 10504 10499 10494 10489 10484 10479 10473 10467 10461 10454 10446 10438 10429 10421 10412 10403 10394 10385 10376 10367 10357 10347 10337 10328 10318 10308 10298 10288 10280 10272 10264 10255 10246 10237 10228 10220 10211 10201 10192 10182 10172 10162 10152 10142 10132 10123 10113 10104 10094 10084 10074 10064 10054 10044 10034 10023 10013 10005 9996 9986 9976 9967 9958 9949 9940 9931 9922 9913
10572 10569 10565 10562 10558 10554 10550 10546 10543 10539 10535 10532 10528 10524 10520 10516 10512 10508 10504 10499 10494 10489 10484 10478 10473 10467 10460 10453 10446 10438 10429 10420 10411 10402 10393 10384 10375 10365 10356 10347 10338 10328 10318 10308 10299 10289 10280 10271 10264 10256 10247 10238 10229 10221 10212 10203 10193 10183 10173 10164 10154 10143 10133 10123 10115 10106 10096 10086 10076 10066 10056 10046 10036 10025 10015 10006 9997 9988 9978 9968 9958 9950 9942 9933 9923 9913 9904
10570 10566 10563 10559 10555 10551 10547 10543 10540 10536 10532 10528 10524 10520 10516 10511 10507 10503 10498 10493 10488 10483 10477 10472 10466 10459 10452 10445 10437 10428 10419 10410 10401 10392 10382 10373 10363 10354 10345 10337 10328 10319 10310 10300 10291 10281 10272 10264 10256 10248 10240 10231 10222 10213 10203 10194 10184 10174 10164 10155 10145 10134 10124 10115 10106 10097 10088 10078 10068 10057 10048 10038 10028 10018 10009 9998 9989 9979 9971 9961 9951 9942 9933 9924 9915 9905 9895
10567 10563 10559 10556 10552 10548 10544 10540 10536 10532 10528 10524 10520 10516 10511 10507 10502 10497 10492 10487 10482 10476 10470 10464 10457 10451 10443 10435 10427 10418 10409 10400 10390 10381 10371 10362 10352 10343 10335 10327 10318 10310 10301 10292 10283 10274 10265 10257 10249 10241 10232 10223 10213 10204 10194 10185 10176 10166 10156 10146 10137 10126 10116 10106 10097 10088 10079 10070 10059 10049 10039 10030 10020 10010 10000 9990 9980 9970 9961 9953 9943 9932 9922 9913 9904 9896 9887
10564 10560 10556 10552 10549 10544 10540 10536 10532 10528 10524 10520 10515 10511 10506 10502 10497 10492 10486 10481 10475 10469 10463 10456 10449 10442 10434 10426 10417 10408 10399 10390 10380 10370 10361 10351 10341 10333 10325 10317 10308 10300 10291 10283 10274 10265 10256 10248 10241 10233 10225 10216 10206 10196 10187 10177 10168 10158 10148 10139 10130 10120 10109 10099 10089 10080 10071 10061 10051 10041 10030 10021 10011 10001 9991 9982 9972 9962 9952 9943 9933 9923 9913 9903 9896 9889 9881
10561 10557 10553 10549 10545 10540 10536 10532 10528 10524 10519 10515 10510 10505 10500 10496 10491 10485 10480 10474 10468 10461 10454 10448 10440 10433 10424 10416 10407 10398 10389 10380 10370 10360 10351 10341 10332 10323 10315 10308 10300 10291 10283 10274 10265 10256 10247 10239 10232 10225 10217 10208 10199 10189 10179 10169 10160 10150 10141 10132 10122 10113 10102 10092 10082 10073 10063 10053 10044 10034 10024 10014 10006 9996 9986 9976 9966 9957 9947 9938 9928 9918 9908 9899 9890 9881 9873